Location: Gro� Glienicke
(52.4675°N, 13.1079°E)
Time: 18:02:54
(UTC+00:00)

SL-16 R/B - Pass Details

Date: 06 July 2020
Orbit: 839 x 850 km, 71.0° (Epoch: 12 August)

Event Time Altitude Azimuth Distance (km) Brightness Sun altitude
Exits shadow 21:04:37 10° 127° (SE) 2,453 4.0 -10.0°
Maximum altitude 21:07:27 14° 97° (E) 2,170 4.0 -10.2°
Drops below altitude 10° 21:10:22 10° 65° (ENE) 2,478 4.6 -10.4°
Sets 21:13:58 0° 43° (NE) 3,422 5.6 -10.6°
